User: anonymous   Login
Location: Caltech
(34.1382°N, 118.1253°W)
Time: 16:21:26
(UTC-08:00)
Language:

Cosmos 1025 Rocket - Orbit

View from above orbital plane
View from above orbital plane
View from above satellite
View from above satellite

Ground track
Ground track

The orbit data is extracted from the following two-line orbital elements,

1 10974U 78067B   16041.31698177  .00000294  00000-0  29912-4 0  9995
2 10974  82.4814 275.9444 0017620 171.6618 188.4896 14.87117280 34304
Epoch (UTC): 10 February 2016 07:36:27
Eccentricity: 0.0017620
inclination: 82.4814°
perigee height: 594 km
apogee height: 619 km
right ascension of ascending node: 275.9444°
argument of perigee: 171.6618°
revolutions per day: 14.87117280
mean anomaly at epoch: 188.4896°
orbit number at epoch: 3430

The dashed part of the orbit path shows where the satellite is in the earth's shadow,  

DLR